Location: *
(35.2348°S, 91.3916°E)
Time: 17:24:08
(UTC+00:00)

Cosmos 2151 - Pass Details

Date: 23 October 2019
Orbit: 582 x 601 km, 82.5° (Epoch: 18 November)

Event Time Altitude Azimuth Distance (km) Brightness Sun altitude
Exits shadow 13:33:39 27° 48° (NE) 1,154 3.9 -15.7°
Maximum altitude 13:35:09 36° 89° (E) 960 3.6 -16.0°
Drops below altitude 10° 13:39:05 10° 155° (SSE) 1,946 5.6 -16.7°
Sets 13:41:25 0° 163° (SSE) 2,853 6.6 -17.1°
